Torna al catalogo

FENGYUN 1C DEB

AttivoPO
NORAD 37422·DEBRIS·🇨🇳 China

Lanciato May 10, 1999 da Taiyuan Satellite Launch Center

Loading…

Prossimi Passaggi (prossime 24 ore)

TLE

In scadenzaSource: Space-Track

Epoca: Sep 9, 2026, 02:29 UTC

1 37422U 99025EGQ 26252.10355016  .00005102  00000-0  13535-2 0  9998
2 37422  98.8601  24.8432 0024458 298.7511  61.1224 14.48968026667420

Traccia FENGYUN 1C DEB in tempo reale con AllMySat

Download on the App Store